Terminal Aerodrome Forecast
Issued by NWS Charleston, WV

Current Version | Previous Version | Graphics & Text | Print | Product List | Glossary On
Versions: 1 2 3 4 5 6 7 8 9 10 11 12 13 14 15 16 17 18 19 20 21 22 23 24 25 26 27 28 29 30 31 32
000
FTUS41 KRLX 231850 AAA
TAFHTS
TAF AMD
KHTS 231850Z 2319/2418 20006KT P6SM BKN035
      TEMPO 2319/2323 BKN015 BKN025
     FM240100 00000KT P6SM SCT080
     FM241300 18006KT P6SM FEW200
     FM241700 19009G15KT P6SM FEW200=

USA.gov is the U.S. government's official web portal to all federal, state and local government web resources and services.